Home   Weather   Panama   Past weeks
Flag for Panama

Past Weather in Panama, Panama — Yesterday and Last 2 Weeks

Now
77 °F

Passing clouds.


Feels Like: 78 °F
Forecast: 86 / 78 °F
Wind: 3 mph from East

Location: Panama Airport

Current Time: May 22, 2019 at 6:03:57 am

Latest Report: May 22, 2019 at 5:00 am


Visibility: N/A

Pressure: 29.77 "Hg

Humidity: 94%

Dew Point: 75 °F

Location of PanamaLocation

Past Weather in Panama — Graph

°F

Panama Temperature Yesterday

Maximum temperature yesterday: 86 °F (at 11:00 am)
Minimum temperature yesterday: 75 °F (at 1:00 am)
Average temperature yesterday: 80 °F

High & Low Weather Summary for the Past Weeks

 TemperatureHumidityPressure
High91 °F (May 7, 1:00 pm)100% (May 8, 2:48 pm)29.89 "Hg (May 8, 2:48 pm)
Low73 °F (May 12, 2:00 am)59% (May 7, 1:00 pm)29.71 "Hg (May 7, 7:00 pm)
Average80 °F87%29.82 "Hg
* Reported May 7 5:00 am — May 22 5:00 am, Panama. Weather by CustomWeather, © 2019

Note: Actual official high and low records may vary slightly from our data, if they occured in-between our weather recording intervals... More about our weather records

Advertising

Panama Weather History for the Previous 24 Hours

Scroll right to see more
 ConditionsComfort  
Time TempWeatherWind HumidityBarometerVisibility
5:00 am
Wed, May 22
77 °FPassing clouds.3 mph94%29.77 "HgN/A
4:00 am77 °FPassing clouds.5 mph94%29.80 "HgN/A
3:00 am77 °FPassing clouds.5 mph94%29.80 "HgN/A
2:00 am79 °FPassing clouds.7 mph89%29.83 "HgN/A
1:00 am77 °FPassing clouds.6 mph94%29.83 "HgN/A
12:00 am77 °FPassing clouds.5 mph94%29.83 "HgN/A
11:00 pm
Tue, May 21
79 °FPassing clouds.3 mph94%29.83 "HgN/A
10:00 pm79 °FPassing clouds.2 mph94%29.80 "HgN/A
9:00 pm79 °FLight rain. Passing clouds.2 mph94%29.77 "Hg6 mi
8:00 pm81 °FPassing clouds.3 mph89%29.77 "HgN/A
7:00 pm81 °FPartly cloudy.2 mph89%29.77 "HgN/A
6:00 pm81 °FScattered clouds.2 mph84%29.77 "HgN/A
5:00 pm82 °FScattered clouds.6 mph79%29.77 "HgN/A
4:00 pm82 °FScattered showers. Scattered clouds.9 mph84%29.77 "Hg5 mi
3:00 pm82 °FScattered showers. Broken clouds.9 mph79%29.80 "Hg6 mi
2:00 pm82 °FScattered showers. Scattered clouds.10 mph79%29.83 "HgN/A
1:00 pm82 °FScattered clouds.13 mph84%29.83 "HgN/A
12:00 pm84 °FScattered clouds.10 mph79%29.83 "HgN/A
11:00 am86 °FScattered clouds.9 mph79%29.86 "HgN/A
10:00 am81 °FScattered clouds.10 mph89%29.86 "HgN/A
9:12 am79 °FScattered clouds.3 mph94%29.83 "HgN/A
8:00 am79 °FScattered clouds.2 mph94%29.83 "HgN/A
7:00 am77 °FScattered clouds.No wind100%29.80 "HgN/A
6:00 am77 °FScattered clouds.2 mph94%29.80 "HgN/A
Weather by CustomWeather, © 2019

See weather overview